Flag for Canada Weather past 2 weeks in Port Coquitlam, British Columbia, Canada

Now
54 °F

Cool.


Feels Like: 54 °F
Forecast: 50 / 58 °F
Wind: 3 mph from Southeast

Location: P. Meadows Coastal Station

Current Time: Sep 2, 2015 at 2:35:06 AM

Latest Report: Sep 2, 2015 at 2:00 AM


Visibility: N/A

Pressure: 29.75 "Hg

Humidity: 94%

Dew point: 53 °F

Location of Port CoquitlamLocation

Historic Weather in Port Coquitlam — Graph

°F

Port Coquitlam temperature yesterday

Maximum temperature yesterday: 62 °F (at 11:00 AM)
Minimum temperature yesterday: 56 °F (at 11:00 PM)
Average temperature yesterday: 59 °F

Past Weeks' High & Low Weather Summary

 TemperatureHumidityPressure
High88 °F (Aug 18, 5:00 PM)99% (Aug 22, 2:00 AM)30.13 "Hg (Aug 22, 2:00 AM)
Low50 °F (Aug 25, 5:00 AM)24% (Aug 27, 4:00 PM)29.46 "Hg (Aug 29, 6:00 AM)
Average65 °F71%29.92 "Hg
* Reported Aug 18 1:00 AM — Sep 2 1:00 AM, Port Coquitlam, Weather by CustomWeather, © 2015

Note: Actual official high and low records may vary slightly from our data, if they occured in-between our weather recording intervals... More about our weather records

Advertising

Port Coquitlam weather history for previous 24 hours

 ConditionsComfort  
Time TempWeatherWind HumidityBarometerVisibility
1:00 AM
Wed, Sep 2
55 °FCool.2 mph94%29.75 "HgN/A
12:00 AM56 °FCool.5 mph94%29.75 "HgN/A
11:00 PM
Tue, Sep 1
56 °FCool.3 mph94%29.74 "HgN/A
10:00 PM56 °FCool.3 mph94%29.75 "HgN/A
9:00 PM57 °FCool.1 mph94%29.74 "HgN/A
8:00 PM57 °FCool.1 mph94%29.73 "HgN/A
7:00 PM58 °FCool.1 mph93%29.76 "HgN/A
6:00 PM59 °FCool.3 mph91%29.75 "HgN/A
5:00 PM60 °FCool.7 mph87%29.77 "HgN/A
4:00 PM61 °FCool.5 mph81%29.80 "HgN/A
3:00 PM61 °FCool.6 mph83%29.80 "HgN/A
2:00 PM61 °FCool.1 mph79%29.80 "HgN/A
1:00 PM60 °FCool.7 mph76%29.82 "HgN/A
12:00 PM62 °FCool.1 mph78%29.82 "HgN/A
11:00 AM62 °FCool.1 mph78%29.83 "HgN/A
10:00 AM61 °FCool.1 mph81%29.83 "HgN/A
9:00 AM60 °FCool.2 mph89%29.83 "HgN/A
8:00 AM59 °FCool.1 mph91%29.83 "HgN/A
7:00 AM59 °FCool.2 mph93%29.82 "HgN/A
6:00 AM59 °FCool.2 mph94%29.82 "HgN/A
5:00 AM59 °FCool.1 mph94%29.82 "HgN/A
4:00 AM59 °FCool.2 mph93%29.82 "HgN/A
3:00 AM59 °FCool.6 mph94%29.82 "HgN/A
2:00 AM60 °FCool.7 mph92%29.80 "HgN/A
Weather by CustomWeather, © 2015

See weather overviewHow to use our weather pages